RH
52 52 52 44 40 52 40 29 27 32 35 36 46 59 69 70 77 62 73 85 81 81 78 79 78 81 81 82 84 90 92 89 91 88 83 68 81 91 96 97 85 95 96 94 87 91 97 96 78
52 51 48 63 45 40 32 33 36 34 32 43 35 40 49 67 51 69 75 83 83 85 81 81 79 80 78 79 82 86 88 89 90 90 88 78 72 80 87 94 90 95 93 97 96 87 78 87 69
52 52 60 64 64 29 38 39 36 27 26 28 33 35 37 41 47 64 86 86 82 79 82 82 79 76 77 78 81 83 85 86 86 88 88 84 72 75 88 90 86 87 87 86 81 75 66 72 76
50 54 56 58 50 38 36 36 31 26 24 27 33 40 43 46 50 58 83 87 84 84 85 83 80 72 76 77 79 81 83 85 85 86 88 86 78 76 92 86 82 84 84 78 74 61 55 70 76
49 58 55 58 42 36 34 31 30 28 26 29 31 40 46 41 44 56 84 82 70 78 83 86 80 76 75 76 78 80 81 82 84 84 84 87 85 78 80 81 78 78 80 80 77 63 49 55 67
64 55 53 51 38 36 30 28 26 29 27 24 33 43 41 38 38 53 69 77 72 72 84 87 88 84 80 76 76 78 81 80 82 84 81 84 86 87 82 84 84 85 82 83 78 67 50 48 54
59 57 54 42 45 35 30 28 28 28 27 26 24 41 39 36 32 38 51 62 70 64 81 90 86 88 84 84 82 78 76 76 79 84 83 80 83 84 86 85 86 89 88 81 75 69 53 44 42
56 44 31 39 42 35 29 27 28 27 26 24 20 41 38 32 28 31 29 29 39 54 53 71 88 85 85 81 86 87 85 82 81 82 85 83 80 83 86 84 84 88 90 87 78 69 64 56 49
34 45 41 39 37 34 30 28 26 24 23 21 21 29 29 31 30 32 24 20 18 18 20 30 42 80 94 93 89 86 84 87 87 86 88 87 84 79 79 82 81 87 89 91 83 75 66 58 58
39 49 38 39 37 32 30 28 29 22 24 20 20 20 21 22 26 23 23 22 20 18 17 18 19 23 37 78 90 95 92 88 85 86 86 86 81 78 74 78 81 81 85 91 88 80 71 66 60
38 41 42 45 37 33 30 27 31 26 21 21 20 21 23 22 24 24 23 23 21 19 19 18 19 19 20 22 32 72 87 88 85 84 84 85 84 81 77 75 79 84 85 95 94 86 83 75 67
39 40 38 42 36 31 30 32 27 28 20 24 25 27 26 30 30 26 25 22 21 22 21 22 23 23 23 23 21 21 32 71 88 90 85 87 88 84 82 77 74 81 85 90 95 91 87 80 72
37 39 42 42 36 34 32 32 33 37 31 31 30 30 31 31 27 25 27 27 27 26 24 24 25 25 25 26 26 26 23 23 56 86 90 91 89 83 76 74 75 77 86 87 91 94 89 88 78
40 41 39 37 36 39 37 35 38 26 33 30 28 28 29 32 38 43 46 46 45 40 34 31 30 30 29 29 29 28 27 26 24 38 81 88 90 83 80 75 79 82 82 89 87 89 88 87 86
36 39 37 38 38 46 42 24 42 34 34 32 32 32 33 39 67 73 68 64 62 59 58 52 50 48 46 42 38 35 31 31 31 28 30 75 92 91 90 86 81 80 83 81 85 84 88 91 89
38 41 36 41 42 47 30 26 22 37 34 36 36 37 38 70 71 63 59 58 57 56 55 56 57 57 56 55 54 52 45 41 35 33 32 30 55 86 90 94 89 78 79 80 97 92 88 91 95
48 48 37 44 45 51 43 37 28 37 40 41 40 45 65 70 67 59 59 56 54 56 55 55 56 55 55 55 54 54 55 51 45 38 34 33 29 48 90 92 94 78 81 91 98 100 93 89 89
39 36 44 42 45 46 51 60 48 45 45 45 46 73 72 70 66 64 61 58 57 56 57 62 64 64 63 60 56 52 53 56 51 45 36 35 34 30 46 88 94 96 83 87 96 100 89 86 82
39 38 38 43 45 52 59 61 50 45 54 54 78 77 72 73 65 64 61 60 63 63 68 69 75 75 74 77 80 78 69 60 61 53 44 38 37 36 36 55 82 94 98 83 80 89 100 98 94
40 38 49 46 47 55 61 66 49 56 62 60 84 77 77 77 75 67 63 64 66 73 77 80 85 86 87 86 86 86 84 75 65 63 49 41 39 37 37 43 54 60 85 78 81 81 100 100 100
64 56 58 59 61 58 68 55 42 68 78 79 78 76 78 80 79 76 70 69 69 78 83 89 90 93 96 98 96 96 89 81 68 62 52 47 42 39 45 54 68 64 60 76 72 80 90 100 100
58 59 56 58 76 63 63 66 56 57 78 78 78 78 81 80 77 77 74 73 75 82 87 90 95 98 100 96 100 96 90 86 70 63 52 50 47 47 51 62 73 77 75 84 74 72 77 92 100
58 56 59 62 77 86 74 91 67 68 68 74 81 79 79 78 80 80 79 73 76 83 91 91 96 98 100 100 100 100 94 87 79 63 55 50 46 44 43 63 64 71 85 78 79 74 83 83 96
52 64 70 79 80 84 65 82 80 78 60 63 70 75 74 74 75 77 70 74 78 86 93 97 98 97 98 98 98 100 100 88 72 60 57 50 46 44 61 74 72 69 64 79 79 71 75 88 100
59 69 77 68 90 72 73 91 79 59 60 66 65 69 71 74 79 82 84 80 78 84 91 97 95 96 98 100 99 99 100 94 82 72 66 63 55 50 49 56 64 66 61 74 83 81 80 76 91
63 68 80 57 91 92 79 94 76 59 66 70 72 71 74 78 80 81 75 74 81 85 89 97 100 100 96 99 99 99 100 100 100 100 96 74 60 56 56 66 73 67 72 76 82 83 78 80 84
70 87 73 80 92 93 92 76 64 67 78 79 80 80 82 80 79 77 69 71 80 84 83 89 92 96 97 99 99 100 89 96 99 99 100 99 93 85 81 76 70 71 86 89 79 74 78 83 88
72 77 85 92 95 97 88 87 78 72 63 72 79 82 81 79 77 77 77 72 75 80 81 81 85 90 93 95 99 96 93 98 98 98 100 100 100 99 94 92 81 89 92 90 80 82 88 86 86
90 89 89 87 88 90 94 83 73 66 60 58 68 75 76 75 76 77 75 66 69 73 76 77 84 82 83 90 93 90 88 92 99 99 99 98 98 98 100 98 94 94 100 96 91 90 86 88 98
76 83 87 91 83 95 87 84 58 66 62 60 59 62 69 74 74 75 70 65 69 67 66 65 78 84 81 87 91 91 90 93 95 99 100 100 100 100 96 99 98 97 93 92 94 94 99 99 99
Wind_Speed
4 4 4 5 4 5 2 4 2 1 3 4 2 8 8 4 3 3 2 8 5 6 8 8 10 9 9 8 8 8 8 7 8 5 5 6 7 7 7 5 8 8 13 12 10 8 8 9 11
5 5 4 3 5 3 4 3 3 1 2 5 6 2 6 3 2 1 2 6 6 3 7 8 9 10 9 8 8 8 8 8 7 5 4 3 5 6 7 5 7 9 11 10 9 8 8 9 11
5 3 4 4 4 4 4 2 3 1 2 4 4 5 3 2 2 1 5 5 7 3 7 9 9 10 9 8 8 9 8 8 7 7 6 2 4 6 6 7 7 8 8 6 6 6 8 12 13
4 4 4 4 4 3 2 4 3 1 3 6 3 6 3 3 2 4 5 4 5 2 5 7 7 9 9 9 9 9 9 8 7 7 7 5 3 6 7 7 8 8 7 6 5 6 10 12 14
4 3 4 3 2 1 1 2 3 1 3 5 2 3 2 2 2 5 6 4 5 6 1 6 5 6 8 9 9 9 10 9 8 7 8 7 5 6 8 9 8 7 8 6 6 6 10 12 13
4 3 4 4 3 2 1 4 1 3 3 3 5 4 1 2 1 4 7 6 3 4 5 6 6 6 7 8 9 10 10 10 10 9 8 8 7 7 9 11 11 10 9 8 7 7 8 10 12
5 4 5 6 6 2 1 4 3 3 2 5 0 4 2 4 3 4 4 5 4 0 3 1 5 5 7 8 9 10 11 11 11 11 10 10 10 9 10 12 13 14 13 10 9 10 10 10 11
4 4 4 1 5 4 2 2 1 3 1 3 1 4 3 2 6 3 2 4 4 3 4 3 4 4 3 7 10 11 12 13 13 13 13 13 12 12 12 13 14 15 15 14 12 11 12 11 12
3 4 2 5 6 4 2 2 3 2 2 3 2 4 2 6 6 2 3 4 5 5 6 7 6 5 5 6 10 12 14 15 16 16 16 16 15 15 15 15 15 17 18 18 16 14 14 13 12
5 4 5 1 1 3 2 2 3 2 5 1 4 4 7 7 4 1 4 8 10 11 11 10 10 10 9 10 11 11 13 17 18 19 19 19 19 19 18 18 17 17 18 19 19 16 15 15 15
2 3 3 2 1 3 2 2 4 2 3 5 4 2 5 2 5 5 7 9 12 13 13 12 13 13 14 14 13 15 16 16 19 21 21 22 22 22 22 21 21 20 20 22 23 21 19 19 19
6 3 2 2 3 3 3 3 5 1 2 3 2 2 2 5 9 9 9 11 10 11 11 11 10 12 13 15 17 18 18 18 19 20 23 23 25 26 26 25 24 23 23 25 26 26 23 22 21
4 2 4 4 5 3 1 2 4 6 9 7 8 7 7 6 7 11 12 14 15 16 17 15 14 14 14 15 16 18 20 22 21 22 23 23 27 29 28 28 27 27 27 27 29 30 28 25 24
2 5 4 4 3 3 3 2 3 2 4 7 4 5 5 6 8 11 15 14 13 13 13 13 14 15 17 18 19 20 22 22 23 25 24 25 26 29 29 28 28 29 31 30 31 31 31 29 27
4 4 2 2 2 2 2 5 6 3 4 5 7 7 7 4 9 10 11 13 15 14 13 12 13 14 15 17 20 22 24 25 25 26 27 25 25 29 32 32 33 31 32 33 34 34 32 30 29
4 5 2 2 1 3 3 8 1 4 4 6 8 6 5 3 6 11 14 16 16 17 19 20 20 20 19 19 20 23 24 26 29 28 27 29 28 28 27 34 36 35 36 35 34 37 34 32 31
6 2 1 4 1 2 2 6 3 3 5 9 7 6 1 4 7 14 16 18 20 22 25 27 27 27 27 28 28 27 26 27 29 29 30 28 29 29 26 27 33 33 33 32 30 31 34 30 30
3 2 1 0 3 1 3 12 13 9 6 11 7 4 2 4 4 11 14 16 20 24 24 25 26 28 28 29 31 33 31 28 27 29 30 30 28 30 29 25 27 31 33 30 29 29 33 31 31
3 3 2 1 1 3 5 10 16 12 7 9 5 3 3 6 6 10 11 14 18 23 23 23 26 26 25 27 27 28 27 29 26 24 26 29 29 27 31 28 27 25 30 33 31 30 29 27 29
4 2 2 3 2 2 4 14 17 5 3 3 7 5 5 5 6 9 13 15 22 23 22 23 23 24 25 27 30 28 25 29 29 26 22 22 27 26 26 29 30 29 27 30 31 31 22 21 23
4 3 2 1 5 0 7 7 5 1 2 2 2 3 5 6 7 7 12 17 23 23 21 22 23 23 24 28 27 27 23 24 23 22 23 25 23 23 24 24 25 27 29 31 32 32 29 20 22
2 1 1 1 4 3 4 5 7 1 5 5 6 6 6 6 6 6 12 16 22 22 21 19 20 21 19 21 19 21 21 19 22 21 22 23 24 22 21 20 20 23 25 30 29 32 34 28 18
2 1 1 1 2 4 1 3 8 3 5 8 9 8 7 7 6 7 10 16 21 19 18 19 18 19 18 19 18 16 20 23 22 21 21 20 20 19 19 19 17 18 20 25 27 28 29 30 24
1 2 5 4 3 3 2 4 6 3 4 2 4 7 7 7 6 7 11 14 17 18 17 18 16 18 17 18 17 15 15 18 18 18 19 19 19 17 16 14 15 15 17 22 26 27 25 26 26
3 4 3 5 4 5 1 2 10 6 6 6 6 7 7 6 6 6 7 11 18 20 18 16 17 18 18 18 16 18 18 15 15 18 19 20 19 16 15 16 16 16 16 16 19 23 26 25 24
1 4 4 5 2 5 1 6 6 5 5 6 6 6 5 7 7 7 8 8 14 15 15 15 14 15 18 19 17 15 18 18 15 15 16 16 16 16 15 13 12 14 13 12 12 14 16 17 14
1 2 3 4 2 2 3 7 9 5 7 6 8 7 9 8 8 9 8 9 13 13 11 13 16 15 15 15 16 15 15 16 17 16 14 13 12 11 10 10 13 12 6 5 8 9 14 12 12
1 3 2 1 1 4 5 6 6 4 5 6 8 10 10 8 8 7 9 13 14 11 9 9 11 13 15 15 14 15 17 16 15 14 13 13 12 9 7 7 7 7 6 6 6 6 4 6 8
2 1 2 2 3 3 5 6 7 8 7 7 8 9 9 9 9 8 10 17 17 13 9 7 8 10 12 12 13 12 13 13 12 11 11 10 8 8 6 5 5 6 4 3 3 3 3 5 8
4 5 5 3 4 3 2 8 4 7 6 6 7 7 7 8 9 8 12 18 18 17 13 10 6 6 7 8 10 11 12 12 12 12 11 8 5 2 2 1 2 3 3 2 3 4 6 4 2
Wind_Direction
148 144 120 52 71 64 243 250 283 63 51 349 68 105 115 52 67 177 120 3 26 170 185 181 194 188 184 180 184 175 167 153 150 123 105 125 137 142 139 131 173 142 134 130 128 124 125 123 130
143 136 70 85 94 101 258 271 144 211 128 148 68 76 42 77 41 84 13 15 22 165 194 194 200 196 195 190 190 188 180 174 169 162 143 119 148 159 160 138 137 156 147 143 147 155 144 141 135
133 111 82 99 115 164 187 213 165 32 10 185 97 53 70 56 31 32 354 359 8 195 202 198 199 197 197 198 194 192 189 185 186 186 182 174 182 173 177 175 154 163 168 166 161 166 160 154 148
151 34 35 89 160 222 208 160 220 204 15 47 121 65 50 6 333 15 7 29 33 90 207 199 192 198 201 200 194 195 192 196 197 193 192 199 211 192 189 196 191 188 198 189 180 171 164 162 160
71 60 71 94 149 92 38 353 324 76 77 19 6 125 59 352 55 40 48 53 74 54 198 186 199 210 209 209 204 202 201 204 205 205 206 216 224 211 199 199 198 200 209 217 206 192 177 175 176
49 99 80 156 171 86 20 340 71 52 6 11 68 82 218 272 34 65 58 72 72 58 74 141 192 220 222 226 227 221 218 218 216 213 223 229 232 230 215 211 214 214 219 227 222 210 199 191 189
112 88 156 142 150 119 326 324 46 77 24 29 325 95 261 284 159 81 65 64 71 80 2 38 245 230 239 228 230 232 235 233 228 228 232 236 237 239 231 230 229 227 224 227 227 222 219 213 207
98 89 102 187 175 173 346 67 103 56 79 297 185 159 181 242 171 148 69 49 43 19 348 326 331 246 244 251 244 244 244 243 242 241 238 237 238 242 242 237 234 234 233 231 233 232 229 230 223
105 61 129 167 159 152 357 113 9 318 346 14 34 122 66 125 157 146 344 340 340 334 328 321 314 295 269 256 255 254 251 249 248 246 244 243 242 243 243 241 241 237 236 237 234 237 234 232 231
72 85 195 359 106 123 75 82 350 63 354 354 85 81 79 97 114 14 338 322 318 316 310 302 295 292 286 274 269 262 259 253 250 249 248 247 247 247 247 246 244 240 240 234 231 236 238 236 234
90 133 152 36 63 32 58 46 334 60 229 231 196 127 3 10 354 310 297 288 294 303 302 302 295 290 287 283 280 271 268 267 259 250 251 251 251 249 246 245 242 239 236 231 229 232 234 235 237
90 49 90 146 24 33 45 338 335 287 229 49 21 331 299 326 309 300 291 297 300 304 309 314 309 302 296 289 283 277 276 269 266 259 253 255 254 252 248 245 244 240 235 232 232 232 235 237 239
82 108 63 73 45 67 26 334 277 272 291 291 293 305 298 309 308 325 333 324 325 317 312 309 306 302 299 293 291 287 279 271 269 263 257 261 258 255 253 250 247 243 238 235 232 233 236 237 240
86 88 82 49 37 40 359 276 12 233 1 15 28 340 321 356 360 7 12 6 7 353 335 320 314 308 299 292 290 292 291 288 278 271 266 261 262 255 256 253 249 246 241 239 237 235 237 238 241
117 69 45 55 5 11 319 278 228 268 320 45 6 341 342 23 62 49 17 9 2 355 347 340 325 314 308 302 295 291 285 282 286 282 271 268 263 260 257 254 253 248 246 243 242 239 238 241 242
66 51 92 7 95 347 30 269 194 50 61 341 338 330 336 77 32 13 3 354 348 338 330 321 316 312 308 303 301 295 288 285 279 279 280 271 270 269 273 263 261 251 248 252 244 240 237 242 243
15 149 209 342 172 53 45 277 285 205 353 306 309 296 166 348 349 357 353 347 339 335 328 319 314 309 304 300 297 295 293 284 279 275 270 273 270 272 276 272 268 255 249 248 244 235 238 240 245
193 126 72 22 351 48 290 274 281 272 261 265 257 215 3 331 302 333 337 338 337 331 326 322 315 309 307 302 296 292 289 287 281 276 271 266 271 267 268 273 273 266 258 253 248 239 240 238 244
111 88 114 118 106 306 243 267 274 282 256 262 191 178 274 290 298 315 327 330 334 330 326 325 324 321 317 314 310 303 294 290 288 288 284 268 270 274 270 267 270 271 256 255 251 245 240 238 238
52 98 6 292 215 322 304 280 275 297 301 240 162 206 260 284 296 308 328 336 335 330 327 325 324 326 320 314 308 296 288 285 285 286 282 275 265 271 272 268 269 274 269 259 254 249 237 242 233
39 90 43 258 315 271 317 295 309 26 73 85 182 248 267 265 290 308 318 326 333 331 327 324 326 323 319 308 298 292 291 288 287 287 283 274 270 272 277 270 273 274 272 262 256 252 242 241 240
143 272 36 353 40 265 24 277 295 210 230 230 237 259 262 268 285 294 315 321 330 327 324 325 321 319 320 333 308 290 281 278 287 285 288 278 269 273 271 274 279 279 278 269 261 257 257 244 232
170 186 248 170 66 40 354 63 268 309 262 240 230 245 252 258 270 294 306 317 327 332 321 321 318 323 327 335 345 308 290 288 292 292 284 277 270 272 274 273 281 292 287 278 267 262 255 248 232
1 83 40 50 73 12 246 129 280 218 215 284 231 236 241 256 281 298 305 312 325 337 332 334 326 326 333 335 341 343 323 307 300 298 288 280 281 281 274 275 279 287 291 286 270 264 260 258 245
70 58 340 353 7 226 187 50 248 261 242 220 226 248 238 252 281 270 274 319 330 338 340 340 335 331 338 341 345 350 346 338 314 301 296 292 286 290 283 279 284 290 287 282 274 268 268 265 259
8 131 149 221 268 281 1 238 253 218 279 232 246 257 264 265 259 252 262 306 307 317 335 339 335 337 347 348 350 348 349 356 350 340 325 302 292 289 288 293 288 295 286 276 269 262 265 266 256
327 51 149 107 20 290 251 286 290 240 262 252 255 255 256 256 254 251 263 279 284 295 333 344 348 348 350 352 357 1 350 350 349 341 339 330 321 307 292 275 289 294 277 250 265 275 259 246 246
127 156 84 27 276 284 284 274 240 286 258 236 243 240 252 251 258 254 248 253 267 277 308 339 353 358 358 1 4 10 9 360 350 344 336 334 332 315 295 292 292 280 252 249 264 263 232 245 253
123 190 99 126 181 230 299 266 217 214 209 224 243 239 237 241 244 243 243 249 255 267 283 320 343 358 0 6 9 15 22 14 6 358 350 337 327 324 315 290 276 272 261 259 227 217 249 260 258
183 188 156 138 240 231 271 272 250 232 230 227 249 252 247 241 243 239 242 248 249 260 267 278 304 325 344 3 2 10 20 23 21 16 13 7 1 360 306 346 47 49 38 8 317 325 337 340 357